User: anonymous   Login
Location: Domont
(49.0278°N, 2.3264°E)
Time: 07:39:30
(UTC+00:00)
Language:

Cosmos 1908 - Orbit

View from above orbital plane
View from above orbital plane
View from above satellite
View from above satellite

Ground track
Ground track

The orbit data is extracted from the following two-line orbital elements,

1 18748U 88001A   22023.95274241  .00002503  00000-0  12881-3 0  9991
2 18748  82.4708 197.9971 0012868 187.6380 172.4659 15.15927318860088
Epoch (UTC): 23 January 2022 22:51:56
Eccentricity: 0.0012868
inclination: 82.4708°
perigee height: 509 km
apogee height: 527 km
right ascension of ascending node: 197.9971°
argument of perigee: 187.6380°
revolutions per day: 15.15927318
mean anomaly at epoch: 172.4659°
orbit number at epoch: 86008

The dashed part of the orbit path shows where the satellite is in the earth's shadow,  

DLR